Location: New Canada
(47.1017°N, 68.5042°W)
Time: 16:42:48
(UTC+00:00)

KKS-1 - Pass Details

Date: 03 May 2024
Orbit: 628 x 639 km, 98.1° (Epoch: 21 May)

Event Time Altitude Azimuth Distance (km) Brightness Sun altitude
Rises 02:28:59 0° 33° (NNE) 2,954 ? -21.4°
Reaches altitude 10° 02:32:36 10° 64° (ENE) 2,035 ? -21.7°
Enters shadow 02:33:14 11° 72° (ENE) 1,952 ? -21.8°
